| time (UTC) | temp F | wind direction | speed MPH | gust MPH | rain 1hr in | rain 24hr in | rain mn in | humidity % | barometer mb |
| 20260509213005 | 62 | 355 | 9.0 | 20.0 | 0.00 | 0.00 | 0.00 | 27 | 1007.4 |
| 20260509211504 | 62 | 355 | 10.0 | 17.0 | 0.00 | 0.00 | 0.00 | 26 | 1007.4 |
| 20260509210003 | 62 | 282 | 9.0 | 18.0 | 0.00 | 0.00 | 0.00 | 27 | 1007.0 |
| 20260509204603 | 63 | 355 | 8.0 | 20.0 | 0.00 | 0.00 | 0.00 | 27 | 1007.0 |
| 20260509203058 | 62 | 13 | 10.0 | 18.0 | 0.00 | 0.00 | 0.00 | 29 | 1006.8 |
| 20260509201557 | 62 | 34 | 7.0 | 18.0 | 0.00 | 0.00 | 0.00 | 30 | 1006.7 |
| 20260509200107 | 62 | 16 | 10.0 | 20.0 | 0.00 | 0.00 | 0.00 | 30 | 1006.6 |
| 20260509194529 | 62 | 322 | 8.0 | 19.0 | 0.00 | 0.00 | 0.00 | 30 | 1006.6 |
| 20260509193025 | 61 | 355 | 7.0 | 19.0 | 0.00 | 0.00 | 0.00 | 28 | 1006.6 |
| 20260509191551 | 61 | 27 | 14.0 | 24.0 | 0.00 | 0.00 | 0.00 | 28 | 1006.3 |
| 20260509190056 | 61 | 323 | 12.0 | 19.0 | 0.00 | 0.00 | 0.00 | 31 | 1006.3 |
| 20260509184618 | 61 | 5 | 12.0 | 24.0 | 0.00 | 0.00 | 0.00 | 32 | 1006.1 |
| 20260509183044 | 62 | 5 | 11.0 | 18.0 | 0.00 | 0.00 | 0.00 | 35 | 1005.9 |
| 20260509181546 | 61 | 17 | 8.0 | 18.0 | 0.00 | 0.00 | 0.00 | 35 | 1005.6 |
| 20260509180040 | 60 | 344 | 8.0 | 22.0 | 0.00 | 0.00 | 0.00 | 36 | 1005.5 |
| 20260509174537 | 59 | 355 | 8.0 | 22.0 | 0.00 | 0.00 | 0.00 | 38 | 1005.5 |
| 20260509173035 | 59 | 15 | 10.0 | 19.0 | 0.00 | 0.00 | 0.00 | 37 | 1005.3 |
| 20260509171533 | 59 | 348 | 7.0 | 16.0 | 0.00 | 0.00 | 0.00 | 37 | 1005.3 |
| 20260509170031 | 58 | 20 | 10.0 | 16.0 | 0.00 | 0.00 | 0.00 | 40 | 1005.2 |
| 20260509164525 | 58 | 5 | 14.0 | 21.0 | 0.00 | 0.00 | 0.00 | 40 | 1005.4 |
| 20260509163027 | 58 | 340 | 11.0 | 20.0 | 0.00 | 0.00 | 0.00 | 39 | 1005.1 |
| 20260509161512 | 58 | 360 | 12.0 | 21.0 | 0.00 | 0.00 | 0.00 | 44 | 1005.0 |
| 20260509160009 | 58 | 336 | 6.0 | 16.0 | 0.00 | 0.00 | 0.00 | 50 | 1004.9 |
| 20260509154544 | 56 | 32 | 9.0 | 17.0 | 0.00 | 0.00 | 0.00 | 55 | 1004.8 |
| 20260509153040 | 55 | 321 | 8.0 | 15.0 | 0.00 | 0.00 | 0.00 | 58 | 1004.5 |
| 20260509151507 | 55 | 321 | 6.0 | 15.0 | 0.00 | 0.00 | 0.00 | 61 | 1004.3 |
| 20260509150007 | 54 | 5 | 8.0 | 14.0 | 0.00 | 0.00 | 0.00 | 60 | 1004.1 |
| 20260509144504 | 54 | 312 | 8.0 | 14.0 | 0.00 | 0.00 | 0.00 | 61 | 1003.9 |
| 20260509143006 | 55 | 5 | 9.0 | 16.0 | 0.00 | 0.00 | 0.00 | 62 | 1003.8 |
| 20260509141503 | 54 | 19 | 11.0 | 19.0 | 0.00 | 0.00 | 0.00 | 62 | 1003.5 |
| 20260509140002 | 53 | 360 | 8.0 | 14.0 | 0.00 | 0.00 | 0.00 | 67 | 1003.4 |
| 20260509134529 | 53 | 32 | 6.0 | 13.0 | 0.00 | 0.00 | 0.00 | 64 | 1003.1 |
| 20260509133027 | 53 | 12 | 9.0 | 17.0 | 0.00 | 0.00 | 0.00 | 60 | 1002.8 |
| 20260509131525 | 53 | 355 | 4.0 | 7.0 | 0.00 | 0.00 | 0.00 | 54 | 1002.5 |
| 20260509130024 | 54 | 296 | 2.0 | 6.0 | 0.00 | 0.00 | 0.00 | 51 | 1002.2 |
| 20260509124528 | 54 | 265 | 2.0 | 5.0 | 0.00 | 0.00 | 0.00 | 51 | 1002.1 |
| 20260509123032 | 54 | 302 | 0.0 | 3.0 | 0.00 | 0.00 | 0.00 | 52 | 1001.9 |
| 20260509121523 | 53 | 269 | 0.0 | 2.0 | 0.00 | 0.00 | 0.00 | 53 | 1001.7 |
| 20260509120020 | 53 | 323 | 1.0 | 2.0 | 0.00 | 0.00 | 0.00 | 50 | 1001.5 |
| 20260509114519 | 52 | 241 | 0.0 | 3.0 | 0.00 | 0.00 | 0.00 | 52 | 1001.4 |
| 20260509113019 | 52 | 311 | 2.0 | 5.0 | 0.00 | 0.00 | 0.00 | 54 | 1001.5 |
| 20260509111529 | 51 | 238 | 0.0 | 3.0 | 0.00 | 0.00 | 0.00 | 55 | 1000.8 |
| 20260509110014 | 52 | 277 | 1.0 | 3.0 | 0.00 | 0.00 | 0.00 | 52 | 1000.9 |
| 20260509104524 | 51 | 187 | 0.0 | 2.0 | 0.00 | 0.00 | 0.00 | 53 | 1001.1 |
| 20260509103012 | 51 | 360 | 2.0 | 5.0 | 0.00 | 0.00 | 0.00 | 51 | 1001.1 |
| 20260509101514 | 51 | 5 | 0.0 | 3.0 | 0.00 | 0.00 | 0.00 | 52 | 1000.9 |
| 20260509100059 | 50 | 278 | 2.0 | 9.0 | 0.00 | 0.00 | 0.00 | 59 | 1000.6 |
| 20260509094544 | 47 | 18 | 1.0 | 4.0 | 0.00 | 0.00 | 0.00 | 59 | 1000.4 |
| 20260509093006 | 48 | 211 | 0.0 | 2.0 | 0.00 | 0.00 | 0.00 | 58 | 1000.1 |
| 20260509091502 | 50 | 211 | 0.0 | 0.0 | 0.00 | 0.00 | 0.00 | 56 | 1000.2 |
| 20260509090101 | 49 | 211 | 0.0 | 1.0 | 0.00 | 0.00 | 0.00 | 54 | 1000.4 |
| 20260509084600 | 50 | 211 | 0.0 | 0.0 | 0.00 | 0.00 | 0.00 | 51 | 1000.3 |
| 20260509083059 | 50 | 211 | 0.0 | 1.0 | 0.00 | 0.00 | 0.00 | 52 | 1000.3 |
| 20260509081602 | 50 | 211 | 0.0 | 2.0 | 0.00 | 0.00 | 0.00 | 49 | 1000.0 |
| 20260509080028 | 49 | 223 | 0.0 | 3.0 | 0.00 | 0.00 | 0.00 | 52 | 1000.1 |
| 20260509074527 | 49 | 219 | 1.0 | 3.0 | 0.00 | 0.00 | 0.00 | 52 | 1000.2 |
| 20260509073023 | 50 | 252 | 0.0 | 1.0 | 0.00 | 0.00 | 0.00 | 51 | 1000.4 |
| 20260509071519 | 50 | 206 | 1.0 | 3.0 | 0.00 | 0.00 | 0.00 | 49 | 1000.4 |
| 20260509070015 | 54 | 248 | 0.0 | 1.0 | 0.00 | 0.00 | 0.00 | 41 | 1000.7 |
| 20260509064525 | 55 | 248 | 0.0 | 0.0 | 0.00 | 0.00 | 0.00 | 38 | 1000.7 |
| 20260509063010 | 56 | 271 | 0.0 | 2.0 | 0.00 | 0.00 | 0.00 | 35 | 1000.8 |
| 20260509061526 | 58 | 302 | 0.0 | 4.0 | 0.00 | 0.00 | 0.00 | 33 | 1000.8 |
| 20260509060009 | 58 | 306 | 3.0 | 8.0 | 0.00 | 0.00 | 0.00 | 32 | 1000.9 |
| 20260509054509 | 59 | 301 | 3.0 | 8.0 | 0.00 | 0.00 | 0.00 | 31 | 1001.0 |
| 20260509053018 | 59 | 284 | 5.0 | 13.0 | 0.00 | 0.00 | 0.00 | 31 | 1001.2 |
| 20260509051507 | 60 | 347 | 5.0 | 11.0 | 0.00 | 0.00 | 0.00 | 31 | 1001.1 |
| 20260509050008 | 60 | 322 | 4.0 | 12.0 | 0.00 | 0.00 | 0.00 | 33 | 1001.0 |
| 20260509044505 | 61 | 326 | 5.0 | 15.0 | 0.00 | 0.00 | 0.00 | 33 | 1000.9 |
| 20260509043034 | 59 | 315 | 2.0 | 6.0 | 0.00 | 0.00 | 0.00 | 36 | 1000.8 |
| 20260509041534 | 60 | 318 | 2.0 | 6.0 | 0.00 | 0.00 | 0.00 | 36 | 1000.6 |
| 20260509040029 | 59 | 287 | 3.0 | 6.0 | 0.00 | 0.00 | 0.00 | 37 | 1000.5 |
| 20260509034535 | 59 | 329 | 2.0 | 5.0 | 0.00 | 0.00 | 0.00 | 38 | 1000.4 |
| 20260509033028 | 57 | 317 | 1.0 | 5.0 | 0.00 | 0.00 | 0.00 | 41 | 1000.3 |
| 20260509031527 | 55 | 282 | 1.0 | 3.0 | 0.00 | 0.00 | 0.00 | 49 | 1000.2 |
| 20260509030025 | 52 | 280 | 0.0 | 3.0 | 0.00 | 0.00 | 0.00 | 57 | 1000.1 |
| 20260509024525 | 54 | 286 | 1.0 | 2.0 | 0.00 | 0.00 | 0.00 | 53 | 999.9 |
| 20260509023019 | 53 | 228 | 0.0 | 2.0 | 0.00 | 0.00 | 0.00 | 53 | 999.9 |
| 20260509021515 | 55 | 240 | 1.0 | 2.0 | 0.00 | 0.00 | 0.00 | 48 | 999.7 |
| 20260509020006 | 56 | 236 | 0.0 | 2.0 | 0.00 | 0.00 | 0.00 | 47 | 999.7 |
| 20260509014503 | 58 | 236 | 0.0 | 3.0 | 0.00 | 0.00 | 0.00 | 46 | 999.5 |
| 20260509013059 | 59 | 226 | 0.0 | 4.0 | 0.00 | 0.00 | 0.00 | 43 | 999.5 |
| 20260509011553 | 60 | 204 | 1.0 | 3.0 | 0.00 | 0.00 | 0.00 | 43 | 999.5 |
| 20260509010046 | 65 | 97 | 0.0 | 0.0 | 0.00 | 0.00 | 0.00 | 34 | 999.4 |
| 20260509004540 | 67 | 97 | 0.0 | 1.0 | 0.00 | 0.00 | 0.00 | 33 | 999.4 |
| 20260509003040 | 69 | 97 | 0.0 | 2.0 | 0.00 | 0.00 | 0.00 | 26 | 999.4 |
| 20260509001534 | 70 | 99 | 0.0 | 1.0 | 0.00 | 0.00 | 0.00 | 25 | 999.4 |
| 20260509000031 | 70 | 92 | 1.0 | 5.0 | 0.00 | 0.00 | 0.00 | 24 | 999.4 |
| 20260508234529 | 71 | 84 | 0.0 | 4.0 | 0.00 | 0.00 | 0.00 | 25 | 999.6 |
| 20260508233026 | 70 | 340 | 2.0 | 6.0 | 0.00 | 0.00 | 0.00 | 25 | 999.7 |
| 20260508231523 | 69 | 355 | 3.0 | 7.0 | 0.00 | 0.00 | 0.00 | 25 | 999.8 |
| 20260508230024 | 70 | 22 | 3.0 | 7.0 | 0.00 | 0.00 | 0.00 | 24 | 1000.0 |
| 20260508230021 | 70 | 12 | 3.0 | 7.0 | 0.00 | 0.00 | 0.00 | 24 | 1000.0 |
| 20260508224526 | 72 | 269 | 3.0 | 8.0 | 0.00 | 0.00 | 0.00 | 22 | 1000.0 |
| 20260508223033 | 71 | 309 | 3.0 | 8.0 | 0.00 | 0.00 | 0.00 | 21 | 1000.1 |
| 20260508221511 | 71 | 259 | 3.0 | 9.0 | 0.00 | 0.00 | 0.00 | 23 | 1000.3 |
| 20260508220009 | 70 | 306 | 2.0 | 8.0 | 0.00 | 0.00 | 0.00 | 23 | 1000.5 |
| 20260508214506 | 71 | 320 | 4.0 | 9.0 | 0.00 | 0.00 | 0.00 | 21 | 1000.8 |